This is the latest recevied weather packets stored in our database for station/object KD4UFD. If no packets are shown the sender has not sent any weather packets the latest 10 day(s).
| Time | Temp. | Humidity | Pressure | Rain* | Wind** | Luminosity | Snow |
|---|---|---|---|---|---|---|---|
| 1778117445 | 17.78° C | 99% | 1012.1 hPa | 0 mm | - | 0 W/m² | - |
| 1778117143 | 17.78° C | 99% | 1012.1 hPa | 0 mm | - | 0 W/m² | - |
| 1778116838 | 17.78° C | 99% | 1012.2 hPa | 0 mm | - | 0 W/m² | - |
| 1778116536 | 17.78° C | 99% | 1012.1 hPa | 0 mm | - | 0 W/m² | - |
| 1778116232 | 17.78° C | 99% | 1012.4 hPa | 1.27 mm | - | 0 W/m² | - |
| 1778115927 | 17.78° C | 99% | 1012.5 hPa | 1.27 mm | - | 0 W/m² | - |
| 1778115624 | 18.33° C | 99% | 1012.3 hPa | 0 mm | - | 0 W/m² | - |
| 1778115321 | 18.33° C | 99% | 1012.4 hPa | 0 mm | - | 0 W/m² | - |
| 1778115017 | 18.33° C | 99% | 1011.9 hPa | 0 mm | - | 0 W/m² | - |
| 1778114714 | 18.33° C | 99% | 1012.8 hPa | 0 mm | - | 0 W/m² | - |
| 1778114412 | 18.33° C | 99% | 1012.8 hPa | 0 mm | - | 0 W/m² | - |
| 1778114107 | 18.33° C | 99% | 1012.8 hPa | 0 mm | - | 0 W/m² | - |
| 1778113802 | 18.33° C | 99% | 1013 hPa | 0 mm | - | 0 W/m² | - |
| 1778113499 | 18.33° C | 99% | 1012.9 hPa | 0 mm | - | 0 W/m² | - |
| 1778113195 | 18.33° C | 99% | 1012.4 hPa | 0 mm | - | 0 W/m² | - |
| 1778112892 | 18.33° C | 99% | 1012.3 hPa | 0 mm | - | 0 W/m² | - |
| 1778112589 | 18.33° C | 99% | 1011.9 hPa | 1.78 mm | - | 1 W/m² | - |
| 1778112285 | 18.89° C | 99% | 1012.1 hPa | 1.78 mm | - | 2 W/m² | - |
| 1778111981 | 18.89° C | 99% | 1011.4 hPa | 0 mm | - | 2 W/m² | - |
| 1778111679 | 18.89° C | 99% | 1011.8 hPa | 1.27 mm | - | 0 W/m² | - |
| 1778111374 | 18.89° C | 99% | 1011.8 hPa | 4.83 mm | - | 3 W/m² | - |
| 1778111072 | 18.89° C | 99% | 1011.9 hPa | 10.67 mm | - | 1 W/m² | - |
| 1778110769 | 18.89° C | 99% | 1011.7 hPa | 14.99 mm | - | 2 W/m² | - |
| 1778110465 | 19.44° C | 98% | 1011.7 hPa | 7.87 mm | - | 1 W/m² | - |
| 1778110162 | 19.44° C | 98% | 1011.5 hPa | 1.27 mm | - | 2 W/m² | - |
* Rain latest hour (hover to see other rain measurements)
** Current wind speed in m/s (hover to see current wind gust speed)